Willmar, MN

9:09 PM CST on January 22, 2018 (GMT -0600)
Willmar

Weather History for KBDH - June, 2013

Change the Weather History Date:

Thursday, June 13, 2013

  Actual Average (KBBB) Record (KBBB)
Temperature  
Mean Temperature 68 °F -  
Max Temperature 80 °F 80 °F 96 °F (1987)
Min Temperature 55 °F 56 °F 40 °F (1969)
Cooling Degree Days 2    
Growing Degree Days 18 (Base 50)    
Moisture  
Dew Point 51 °F    
Average Humidity 55    
Maximum Humidity 82    
Minimum Humidity 32    
Precipitation  
Precipitation 0.00 in - - ()
Sea Level Pressure  
Sea Level Pressure 30.09 in    
Wind  
Wind Speed 7 mph (NE)    
Max Wind Speed 10 mph    
Max Gust Speed 16 mph    
Visibility 10 miles    
Events      
Averages and records for this station are not official NWS values.
T = Trace of Precipitation, MM = Missing Value Source: NWS Daily Summary

Daily Weather History Graph

Daily Weather History Graph

Search for Another Location

Airport or City:

Trip Planner

Search our weather history database for the weather conditions in past years. The results will help you decide how hot, cold, wet, or windy it might be!

Date:

Astronomy

Jun. 13, 2013 Rise Set
Actual Time 5:32 AM CDT 9:08 PM CDT
Civil Twilight 4:55 AM CDT 9:46 PM CDT
Nautical Twilight 4:05 AM CDT 10:35 PM CDT
Astronomical Twilight 2:59 AM CDT 11:41 PM CDT
Moon 10:21 AM CDT (6/13) No Moon Set
Length of Visible Light 16h 50m
Length of Day
15h 36m
Waxing Crescent, 22% of the Moon is Illuminated
Jun 13
Waxing Crescent
Jun 16
First Quarter
Jun 23
Full
Jun 29
Last Quarter
Jul 8
New

Hourly Weather History & Observations

Time (CDT) Temp. Dew Point Humidity Pressure Visibility Wind Dir Wind Speed Gust Speed Precip Events Conditions
12:15 AM 64.4 °F 50.0 °F 59% 30.04 in 10.0 mi NNW 10.4 mph - N/A   Clear
12:35 AM 60.8 °F 51.8 °F 72% 30.05 in 10.0 mi NW 8.1 mph - N/A   Clear
12:54 AM 60.8 °F 50.0 °F 68% 30.05 in 10.0 mi NW 6.9 mph - N/A   Clear
1:15 AM 57.2 °F 50.0 °F 77% 30.05 in 10.0 mi NNW 5.8 mph - N/A   Clear
1:35 AM 59.0 °F 50.0 °F 72% 30.04 in 10.0 mi North 6.9 mph - N/A   Clear
1:55 AM 59.0 °F 50.0 °F 72% 30.05 in 10.0 mi NNW 6.9 mph - N/A   Clear
2:15 AM 57.2 °F 50.0 °F 77% 30.07 in 10.0 mi NW 8.1 mph - N/A   Clear
2:35 AM 57.2 °F 48.2 °F 72% 30.07 in 10.0 mi NNW 6.9 mph - N/A   Clear
2:55 AM 55.4 °F 50.0 °F 82% 30.07 in 10.0 mi North 5.8 mph - N/A   Clear
3:15 AM 59.0 °F 50.0 °F 72% 30.06 in 10.0 mi North 6.9 mph - N/A   Clear
3:35 AM 57.2 °F 48.2 °F 72% 30.06 in 10.0 mi North 6.9 mph - N/A   Clear
3:56 AM 57.2 °F 48.2 °F 72% 30.06 in 10.0 mi North 8.1 mph - N/A   Clear
4:15 AM 57.2 °F 50.0 °F 77% 30.07 in 10.0 mi North 8.1 mph - N/A   Clear
4:35 AM 57.2 °F 50.0 °F 77% 30.08 in 10.0 mi North 8.1 mph - N/A   Clear
4:56 AM 57.2 °F 48.2 °F 72% 30.08 in 10.0 mi North 5.8 mph - N/A   Clear
5:15 AM 55.4 °F 48.2 °F 77% 30.09 in 10.0 mi North 4.6 mph - N/A   Clear
5:35 AM 55.4 °F 48.2 °F 77% 30.10 in 10.0 mi North 5.8 mph - N/A   Clear
5:56 AM 57.2 °F 50.0 °F 77% 30.11 in 10.0 mi NW 4.6 mph - N/A   Clear
6:15 AM 55.4 °F 48.2 °F 77% 30.11 in 10.0 mi NNW 4.6 mph - N/A   Clear
6:35 AM 57.2 °F 50.0 °F 77% 30.12 in 10.0 mi North 3.5 mph - N/A   Clear
6:55 AM 60.8 °F 51.8 °F 72% 30.11 in 10.0 mi North 4.6 mph - N/A   Clear
7:15 AM 60.8 °F 51.8 °F 72% 30.11 in 10.0 mi NNE 5.8 mph - N/A   Clear
7:35 AM 62.6 °F 51.8 °F 68% 30.10 in 10.0 mi NE 6.9 mph - N/A   Clear
7:55 AM 62.6 °F 51.8 °F 68% 30.11 in 10.0 mi NNE 8.1 mph - N/A   Clear
8:15 AM 64.4 °F 51.8 °F 64% 30.11 in 10.0 mi NNE 8.1 mph - N/A   Clear
8:35 AM 66.2 °F 51.8 °F 60% 30.12 in 10.0 mi North 8.1 mph - N/A   Clear
8:55 AM 66.2 °F 53.6 °F 64% 30.12 in 10.0 mi NE 8.1 mph - N/A   Clear
9:15 AM 68.0 °F 53.6 °F 60% 30.13 in 10.0 mi NE 6.9 mph - N/A   Clear
9:35 AM 68.0 °F 53.6 °F 60% 30.13 in 10.0 mi NE 5.8 mph - N/A   Clear
9:55 AM 69.8 °F 51.8 °F 53% 30.14 in 10.0 mi NE 4.6 mph - N/A   Clear
10:15 AM 69.8 °F 51.8 °F 53% 30.14 in 10.0 mi NE 4.6 mph - N/A   Clear
10:35 AM 69.8 °F 53.6 °F 56% 30.14 in 10.0 mi NNE 3.5 mph - N/A   Clear
10:55 AM 71.6 °F 50.0 °F 46% 30.14 in 10.0 mi Calm Calm - N/A   Clear
11:15 AM 71.6 °F 50.0 °F 46% 30.14 in 10.0 mi NE 5.8 mph - N/A   Clear
11:35 AM 73.4 °F 50.0 °F 44% 30.13 in 10.0 mi Calm Calm - N/A   Clear
11:55 AM 73.4 °F 51.8 °F 47% 30.13 in 10.0 mi NE 4.6 mph - N/A   Clear
12:15 PM 73.4 °F 51.8 °F 47% 30.14 in 10.0 mi NE 3.5 mph - N/A   Clear
12:35 PM 73.4 °F 50.0 °F 44% 30.14 in 10.0 mi NNE 3.5 mph - N/A   Clear
12:56 PM 75.2 °F 51.8 °F 44% 30.13 in 10.0 mi North 6.9 mph - N/A   Scattered Clouds
1:15 PM 75.2 °F 51.8 °F 44% 30.13 in 10.0 mi North 5.8 mph - N/A   Clear
1:35 PM 75.2 °F 50.0 °F 41% 30.13 in 5.0 mi NNE 5.8 mph - N/A   Haze
1:55 PM 75.2 °F 46.4 °F 36% 30.13 in 7.0 mi ENE 3.5 mph - N/A   Clear
2:15 PM 75.2 °F 48.2 °F 38% 30.12 in 10.0 mi NNE 9.2 mph - N/A   Clear
2:35 PM 77.0 °F 48.2 °F 36% 30.11 in 10.0 mi NNE 10.4 mph - N/A   Clear
2:56 PM 77.0 °F 48.2 °F 36% 30.10 in 10.0 mi NE 4.6 mph - N/A   Clear
3:15 PM 77.0 °F 50.0 °F 39% 30.10 in 10.0 mi East 4.6 mph - N/A   Clear
3:35 PM 77.0 °F 50.0 °F 39% 30.10 in 10.0 mi ENE 3.5 mph 9.2 mph N/A   Clear
3:56 PM 78.8 °F 50.0 °F 36% 30.09 in 10.0 mi NE 9.2 mph - N/A   Clear
4:15 PM 78.8 °F 48.2 °F 34% 30.09 in 10.0 mi East 5.8 mph - N/A   Clear
4:35 PM 78.8 °F 48.2 °F 34% 30.09 in 10.0 mi NE 8.1 mph - N/A   Clear
4:55 PM 78.8 °F 48.2 °F 34% 30.09 in 10.0 mi North 5.8 mph - N/A   Clear
5:15 PM 78.8 °F 48.2 °F 34% 30.08 in 10.0 mi NE 6.9 mph - N/A   Clear
5:35 PM 78.8 °F 48.2 °F 34% 30.08 in 10.0 mi NE 6.9 mph 16.1 mph N/A   Clear
5:55 PM 78.8 °F 50.0 °F 36% 30.07 in 10.0 mi ENE 8.1 mph - N/A   Clear
6:15 PM 78.8 °F 48.2 °F 34% 30.07 in 10.0 mi East 5.8 mph - N/A   Clear
6:35 PM 80.6 °F 48.2 °F 32% 30.07 in 10.0 mi ESE 3.5 mph - N/A   Scattered Clouds
6:55 PM 78.8 °F 46.4 °F 32% 30.07 in 10.0 mi SSE 3.5 mph - N/A   Scattered Clouds
7:15 PM 78.8 °F 48.2 °F 34% 30.07 in 10.0 mi ESE 3.5 mph - N/A   Clear
7:35 PM 78.8 °F 48.2 °F 34% 30.07 in 10.0 mi ESE 5.8 mph - N/A   Scattered Clouds
7:55 PM 78.8 °F 50.0 °F 36% 30.07 in 10.0 mi East 8.1 mph - N/A   Clear
8:15 PM 75.2 °F 51.8 °F 44% 30.06 in 10.0 mi East 6.9 mph - N/A   Clear
8:35 PM 75.2 °F 51.8 °F 44% 30.06 in 10.0 mi ESE 6.9 mph - N/A   Clear
8:55 PM 73.4 °F 51.8 °F 47% 30.07 in 10.0 mi ESE 5.8 mph - N/A   Clear
9:15 PM 71.6 °F 53.6 °F 53% 30.06 in 10.0 mi ESE 4.6 mph - N/A   Clear
9:35 PM 71.6 °F 53.6 °F 53% 30.07 in 10.0 mi ESE 4.6 mph - N/A   Clear
9:55 PM 69.8 °F 55.4 °F 60% 30.07 in 10.0 mi East 4.6 mph - N/A   Clear
10:15 PM 69.8 °F 53.6 °F 56% 30.07 in 10.0 mi East 5.8 mph - N/A   Clear
10:35 PM 69.8 °F 53.6 °F 56% 30.06 in 10.0 mi East 5.8 mph - N/A   Clear
10:55 PM 69.8 °F 55.4 °F 60% 30.07 in 10.0 mi East 5.8 mph - N/A   Clear
11:15 PM 68.0 °F 53.6 °F 60% 30.07 in 10.0 mi East 6.9 mph - N/A   Clear
11:35 PM 68.0 °F 55.4 °F 64% 30.07 in 10.0 mi East 6.9 mph - N/A   Clear
11:55 PM 68.0 °F 55.4 °F 64% 30.07 in 10.0 mi ESE 6.9 mph - N/A   Clear